When you browse on this site, cookies collect data to enhance your experience and personalize the content and advertising you see.
Visit our Privacy Policy to learn more. By continuing to use the site, you agree to this use of cookies and data.
  • En España
  • Lista de países
  • Para 7 días
  • Temperatura del agua
  • El tiempo en el mapa
  • Informadores
  • user-avatar
    Iniciar sesión

    Tiempo cada hora Asuan

    Hoy, 23 Octubre, Miércoles

    Tiempo Temperatura Precipitaciones Viento Presión Humedad
    00:00 +29°C° 0 mm 6 mps 740 mmHg 30%
    01:00 +28°C° 0 mm 5 mps 740 mmHg 32%
    02:00 +27°C° 0 mm 5 mps 740 mmHg 33%
    03:00 +27°C° 0 mm 5 mps 740 mmHg 34%
    04:00 +26°C° 0 mm 5 mps 740 mmHg 34%
    05:00 +26°C° 0 mm 5 mps 741 mmHg 35%
    06:00 +27°C° 0 mm 5 mps 741 mmHg 33%
    07:00 +28°C° 0 mm 5 mps 741 mmHg 32%
    08:00 +30°C° 0 mm 5 mps 742 mmHg 30%
    09:00 +32°C° 0 mm 5 mps 741 mmHg 27%
    10:00 +34°C° 0 mm 5 mps 741 mmHg 24%
    11:00 +36°C° 0 mm 4 mps 741 mmHg 21%
    12:00 +37°C° 0 mm 4 mps 740 mmHg 20%
    13:00 +38°C° 0 mm 3 mps 740 mmHg 18%
    14:00 +38°C° 0 mm 2 mps 739 mmHg 17%
    15:00 +37°C° 0 mm 3 mps 739 mmHg 17%
    16:00 +37°C° 0 mm 3 mps 739 mmHg 18%
    17:00 +36°C° 0 mm 4 mps 739 mmHg 18%
    18:00 +34°C° 0 mm 4 mps 740 mmHg 21%
    19:00 +33°C° 0 mm 5 mps 740 mmHg 23%
    20:00 +30°C° 0 mm 5 mps 741 mmHg 26%
    21:00 +29°C° 0 mm 5 mps 741 mmHg 28%
    22:00 +29°C° 0 mm 5 mps 741 mmHg 30%
    23:00 +28°C° 0 mm 6 mps 741 mmHg 32%

    Mañana, 24 Octubre, Jueves

    Tiempo Temperatura Precipitaciones Viento Presión Humedad
    00:00 +27°C° 0 mm 5 mps 741 mmHg 32%
    01:00 +26°C° 0 mm 5 mps 741 mmHg 33%
    02:00 +26°C° 0 mm 5 mps 741 mmHg 33%
    03:00 +25°C° 0 mm 5 mps 741 mmHg 33%
    04:00 +25°C° 0 mm 5 mps 741 mmHg 32%
    05:00 +23°C° 0 mm 4 mps 741 mmHg 32%
    06:00 +26°C° 0 mm 4 mps 742 mmHg 29%
    07:00 +27°C° 0 mm 4 mps 742 mmHg 27%
    08:00 +28°C° 0 mm 5 mps 743 mmHg 24%
    09:00 +30°C° 0 mm 4 mps 743 mmHg 22%
    10:00 +32°C° 0 mm 4 mps 742 mmHg 21%
    11:00 +34°C° 0 mm 3 mps 742 mmHg 19%
    12:00 +35°C° 0 mm 4 mps 742 mmHg 17%
    13:00 +36°C° 0 mm 4 mps 741 mmHg 16%
    14:00 +36°C° 0 mm 4 mps 741 mmHg 15%
    15:00 +35°C° 0 mm 5 mps 741 mmHg 16%
    16:00 +34°C° 0 mm 5 mps 741 mmHg 17%
    17:00 +33°C° 0 mm 6 mps 741 mmHg 19%
    18:00 +30°C° 0 mm 6 mps 741 mmHg 20%
    19:00 +29°C° 0 mm 6 mps 742 mmHg 22%
    20:00 +27°C° 0 mm 6 mps 742 mmHg 24%
    21:00 +27°C° 0 mm 6 mps 742 mmHg 24%
    22:00 +26°C° 0 mm 6 mps 742 mmHg 25%
    23:00 +26°C° 0 mm 6 mps 742 mmHg 25%

    Pasado mañana, 25 Octubre, Viernes

    Tiempo Temperatura Precipitaciones Viento Presión Humedad
    00:00 +25°C° 0 mm 5 mps 742 mmHg 26%
    01:00 +23°C° 0 mm 5 mps 742 mmHg 27%
    02:00 +23°C° 0 mm 4 mps 742 mmHg 28%
    03:00 +22°C° 0 mm 4 mps 742 mmHg 31%
    04:00 +22°C° 0 mm 4 mps 742 mmHg 35%
    05:00 +21°C° 0 mm 4 mps 742 mmHg 38%
    06:00 +22°C° 0 mm 4 mps 743 mmHg 35%
    07:00 +25°C° 0 mm 4 mps 743 mmHg 33%
    08:00 +26°C° 0 mm 3 mps 744 mmHg 31%
    09:00 +28°C° 0 mm 3 mps 743 mmHg 28%
    10:00 +29°C° 0 mm 3 mps 743 mmHg 24%
    11:00 +31°C° 0 mm 3 mps 743 mmHg 21%
    12:00 +31°C° 0 mm 3 mps 742 mmHg 19%
    13:00 +33°C° 0 mm 4 mps 742 mmHg 17%
    14:00 +34°C° 0 mm 4 mps 741 mmHg 15%
    15:00 +33°C° 0 mm 4 mps 741 mmHg 16%
    16:00 +31°C° 0 mm 3 mps 741 mmHg 18%
    17:00 +30°C° 0 mm 3 mps 741 mmHg 19%
    18:00 +29°C° 0 mm 3 mps 742 mmHg 22%
    19:00 +28°C° 0 mm 3 mps 742 mmHg 24%
    20:00 +26°C° 0 mm 4 mps 743 mmHg 27%
    21:00 +26°C° 0 mm 4 mps 743 mmHg 29%
    22:00 +25°C° 0 mm 4 mps 743 mmHg 31%
    23:00 +25°C° 0 mm 5 mps 743 mmHg 34%

    26 Octubre, Sábado

    Tiempo Temperatura Precipitaciones Viento Presión Humedad
    00:00 +23°C° 0 mm 5 mps 743 mmHg 35%
    01:00 +23°C° 0 mm 5 mps 743 mmHg 37%
    02:00 +22°C° 0 mm 5 mps 742 mmHg 39%
    03:00 +22°C° 0 mm 5 mps 743 mmHg 41%
    04:00 +22°C° 0 mm 4 mps 743 mmHg 43%
    05:00 +21°C° 0 mm 4 mps 743 mmHg 44%
    06:00 +23°C° 0 mm 4 mps 743 mmHg 41%
    07:00 +25°C° 0 mm 5 mps 744 mmHg 38%
    08:00 +27°C° 0 mm 5 mps 744 mmHg 34%
    09:00 +28°C° 0 mm 5 mps 744 mmHg 31%
    10:00 +30°C° 0 mm 5 mps 744 mmHg 27%
    11:00 +32°C° 0 mm 5 mps 744 mmHg 23%
    12:00 +33°C° 0 mm 5 mps 743 mmHg 21%
    13:00 +33°C° 0 mm 5 mps 742 mmHg 19%
    14:00 +34°C° 0 mm 5 mps 741 mmHg 18%
    15:00 +33°C° 0 mm 4 mps 741 mmHg 19%
    16:00 +32°C° 0 mm 4 mps 741 mmHg 20%
    17:00 +30°C° 0 mm 4 mps 741 mmHg 21%
    18:00 +29°C° 0 mm 4 mps 741 mmHg 24%
    19:00 +28°C° 0 mm 4 mps 742 mmHg 28%
    20:00 +26°C° 0 mm 4 mps 742 mmHg 31%
    21:00 +26°C° 0 mm 5 mps 742 mmHg 33%
    22:00 +25°C° 0 mm 5 mps 742 mmHg 35%
    23:00 +25°C° 0 mm 5 mps 742 mmHg 37%

    27 Octubre, Domingo

    Tiempo Temperatura Precipitaciones Viento Presión Humedad
    00:00 +23°C° 0 mm 5 mps 742 mmHg 40%
    01:00 +23°C° 0 mm 5 mps 742 mmHg 43%
    02:00 +22°C° 0 mm 5 mps 742 mmHg 46%
    03:00 +22°C° 0 mm 5 mps 742 mmHg 50%
    04:00 +21°C° 0 mm 4 mps 742 mmHg 53%
    05:00 +21°C° 0 mm 4 mps 742 mmHg 57%
    06:00 +22°C° 0 mm 4 mps 742 mmHg 54%
    07:00 +23°C° 0 mm 4 mps 743 mmHg 51%
    08:00 +25°C° 0 mm 4 mps 743 mmHg 49%
    09:00 +27°C° 0 mm 3 mps 743 mmHg 43%
    10:00 +29°C° 0 mm 3 mps 743 mmHg 37%
    11:00 +30°C° 0 mm 3 mps 742 mmHg 31%
    12:00 +31°C° 0 mm 3 mps 742 mmHg 27%
    13:00 +33°C° 0 mm 3 mps 741 mmHg 23%
    14:00 +34°C° 0 mm 3 mps 740 mmHg 19%
    15:00 +33°C° 0 mm 3 mps 740 mmHg 19%
    16:00 +31°C° 0 mm 3 mps 740 mmHg 19%
    17:00 +31°C° 0 mm 3 mps 740 mmHg 20%
    18:00 +29°C° 0 mm 3 mps 740 mmHg 23%
    19:00 +28°C° 0 mm 3 mps 740 mmHg 26%
    20:00 +26°C° 0 mm 4 mps 741 mmHg 28%
    21:00 +26°C° 0 mm 4 mps 741 mmHg 31%
    22:00 +25°C° 0 mm 4 mps 741 mmHg 34%
    23:00 +25°C° 0 mm 4 mps 741 mmHg 36%

    28 Octubre, Lunes

    Tiempo Temperatura Precipitaciones Viento Presión Humedad
    00:00 +23°C° 0 mm 4 mps 741 mmHg 38%
    01:00 +23°C° 0 mm 4 mps 741 mmHg 40%
    02:00 +22°C° 0 mm 3 mps 740 mmHg 43%
    03:00 +21°C° 0 mm 3 mps 740 mmHg 45%
    04:00 +21°C° 0 mm 3 mps 741 mmHg 47%
    05:00 +21°C° 0 mm 3 mps 741 mmHg 49%
    06:00 +22°C° 0 mm 3 mps 741 mmHg 50%
    07:00 +23°C° 0 mm 4 mps 741 mmHg 51%
    08:00 +26°C° 0 mm 5 mps 742 mmHg 51%
    09:00 +27°C° 0 mm 4 mps 742 mmHg 43%
    10:00 +29°C° 0 mm 4 mps 742 mmHg 35%
    11:00 +32°C° 0 mm 4 mps 742 mmHg 27%
    12:00 +33°C° 0 mm 4 mps 741 mmHg 24%
    13:00 +34°C° 0 mm 4 mps 740 mmHg 21%
    14:00 +35°C° 0 mm 4 mps 740 mmHg 18%
    15:00 +34°C° 0 mm 4 mps 740 mmHg 20%
    16:00 +33°C° 0 mm 4 mps 740 mmHg 21%
    17:00 +32°C° 0 mm 4 mps 740 mmHg 22%
    18:00 +30°C° 0 mm 3 mps 740 mmHg 24%
    19:00 +29°C° 0 mm 3 mps 740 mmHg 26%
    20:00 +27°C° 0 mm 3 mps 741 mmHg 27%
    21:00 +27°C° 0 mm 4 mps 741 mmHg 28%
    22:00 +26°C° 0 mm 4 mps 741 mmHg 29%
    23:00 +26°C° 0 mm 4 mps 741 mmHg 30%

    29 Octubre, Martes

    Tiempo Temperatura Precipitaciones Viento Presión Humedad
    00:00 +25°C° 0 mm 4 mps 741 mmHg 29%
    01:00 +23°C° 0 mm 4 mps 741 mmHg 29%
    02:00 +22°C° 0 mm 4 mps 741 mmHg 28%
    03:00 +22°C° 0 mm 4 mps 741 mmHg 29%
    04:00 +22°C° 0 mm 4 mps 741 mmHg 31%
    05:00 +21°C° 0 mm 3 mps 741 mmHg 32%
    06:00 +22°C° 0 mm 4 mps 741 mmHg 34%
    07:00 +25°C° 0 mm 5 mps 742 mmHg 36%
    08:00 +26°C° 0 mm 5 mps 742 mmHg 37%
    09:00 +28°C° 0 mm 5 mps 742 mmHg 32%
    10:00 +30°C° 0 mm 5 mps 742 mmHg 26%
    11:00 +33°C° 0 mm 4 mps 742 mmHg 20%
    12:00 +34°C° 0 mm 4 mps 741 mmHg 19%
    13:00 +35°C° 0 mm 4 mps 740 mmHg 17%
    14:00 +36°C° 0 mm 4 mps 740 mmHg 15%
    15:00 +35°C° 0 mm 4 mps 740 mmHg 16%
    16:00 +34°C° 0 mm 4 mps 740 mmHg 17%
    17:00 +32°C° 0 mm 4 mps 740 mmHg 19%
    18:00 +30°C° 0 mm 4 mps 740 mmHg 19%
    19:00 +29°C° 0 mm 4 mps 741 mmHg 20%
    20:00 +28°C° 0 mm 4 mps 741 mmHg 21%
    21:00 +27°C° 0 mm 4 mps 741 mmHg 21%
    22:00 +26°C° 0 mm 4 mps 741 mmHg 22%
    23:00 +25°C° 0 mm 5 mps 741 mmHg 22%
    Mostrar más